Temperature
19 20 20 20 23 23 23 22 22 20 20 18 17 17 18 19 19 18 14 12 12 11 10 9 9 9 9 9 9 9 8 8 8 7 7 6 6 6 6 6 5 5 5 5 5 5 5 5 5
20 20 20 22 23 22 23 23 21 21 18 15 14 15 17 18 14 14 14 13 11 10 9 8 9 9 9 9 9 8 8 8 8 7 7 7 6 6 6 6 5 5 5 5 5 5 5 5 5
20 20 21 23 23 23 23 23 22 17 15 15 16 15 17 17 13 14 14 13 11 10 9 9 9 9 9 9 9 8 8 8 8 8 7 7 7 6 6 6 5 5 5 5 5 5 5 5 5
20 21 22 24 23 23 23 22 19 16 14 14 16 17 14 14 14 14 15 13 11 10 9 9 9 9 9 9 9 8 8 8 8 8 8 7 7 7 6 6 6 5 5 5 5 5 5 5 5
20 22 23 23 23 23 22 19 17 18 17 16 15 18 16 15 15 15 15 13 11 10 9 8 9 8 9 9 9 8 8 8 8 8 8 7 7 7 6 6 6 5 5 5 5 5 5 5 6
21 23 23 22 23 23 21 18 17 18 18 15 15 17 16 15 15 15 14 13 11 10 9 8 8 8 8 8 8 8 8 8 8 8 8 7 7 7 6 6 6 5 5 5 5 5 5 6 6
22 23 22 22 22 23 22 17 17 19 18 16 15 17 16 14 14 14 13 11 10 9 9 9 8 8 8 8 8 8 8 8 8 8 8 7 7 6 6 6 6 5 5 5 5 5 5 5 5
20 23 22 22 22 22 21 16 16 17 18 16 14 17 18 13 14 13 12 11 10 9 9 9 8 7 8 8 8 8 8 8 8 8 7 7 7 6 6 5 5 5 5 5 5 5 5 5 5
19 22 22 22 22 22 18 16 15 14 15 13 13 15 14 15 14 13 11 11 10 10 9 9 8 8 8 8 8 8 8 8 7 7 7 7 6 6 6 5 5 5 5 5 5 5 4 4 4
20 21 22 21 21 21 18 17 16 14 15 15 13 13 15 14 14 14 13 13 12 11 10 9 8 8 8 8 8 7 7 7 7 7 7 6 6 6 5 5 5 5 5 4 4 4 4 4 4
20 21 21 19 17 17 17 16 15 16 18 18 17 15 15 14 14 14 14 14 14 12 11 10 9 8 8 8 8 7 7 7 7 7 7 6 6 6 5 5 5 5 4 4 4 4 4 3 3
20 20 18 18 15 15 16 16 15 15 18 18 16 15 16 15 15 15 15 14 13 12 12 11 10 9 8 8 8 7 7 7 7 7 6 6 6 5 5 5 5 4 4 4 4 3 3 3 3
19 19 16 15 14 14 14 15 16 16 16 15 15 15 16 16 16 15 14 13 13 13 12 11 10 9 9 8 8 7 7 7 7 6 6 6 6 5 5 5 5 4 4 4 3 3 3 2 2
18 17 16 15 14 14 14 16 14 16 17 15 14 14 15 15 16 15 14 14 13 13 13 12 11 10 9 8 8 8 7 7 7 6 6 6 5 5 5 5 4 4 4 3 3 2 2 2 1
15 17 19 17 15 15 14 17 17 17 16 16 15 15 15 15 15 15 15 15 15 14 13 12 11 10 9 8 8 7 7 7 7 6 6 6 5 5 5 5 4 4 3 3 2 2 2 1 1
17 18 20 19 16 14 15 20 22 20 17 17 17 16 15 16 16 16 15 15 15 14 13 13 12 11 10 9 8 7 7 7 7 6 6 6 5 5 5 4 4 4 3 3 2 2 1 0 0
19 20 20 20 17 15 16 19 22 20 16 17 18 18 16 15 16 17 17 16 15 14 14 13 12 11 10 9 8 8 7 7 7 6 6 6 5 5 5 4 4 3 3 2 2 1 1 -0 -1
20 20 20 20 19 16 16 18 20 20 18 17 18 18 17 16 17 17 17 17 16 15 14 13 12 12 10 9 8 8 7 7 7 6 6 6 5 5 5 4 4 3 3 2 2 1 0 -0 -1
18 18 19 20 19 15 17 18 20 20 20 19 18 17 17 16 16 15 16 16 16 15 14 14 13 12 11 10 9 9 8 8 7 7 7 6 6 5 5 4 4 3 3 2 1 1 -0 -1 -2
17 18 19 20 16 15 17 17 20 20 19 18 17 17 17 16 15 14 15 16 16 16 15 15 14 13 12 11 11 10 9 8 8 8 7 7 6 5 5 4 4 3 3 2 1 1 -0 -1 -2
17 18 19 18 17 16 15 19 22 22 18 17 16 15 15 15 15 14 14 16 17 16 16 16 15 14 13 12 11 10 9 8 8 8 8 7 6 5 5 4 4 3 3 2 1 1 -0 -1 -2
18 17 16 15 16 18 16 17 21 21 21 21 20 18 16 15 15 15 15 16 17 17 17 16 15 15 14 13 12 11 11 10 11 10 9 8 7 6 5 5 4 3 3 2 1 1 -0 -1 -2
17 15 15 15 15 16 16 16 20 21 22 22 21 19 17 16 16 16 17 17 18 17 17 16 16 15 15 14 13 12 11 11 10 9 9 9 8 7 6 5 4 3 3 2 1 1 -0 -1 -1
15 15 14 14 15 17 17 17 20 23 21 20 20 19 17 16 17 17 18 18 18 18 17 17 16 16 15 15 14 13 13 12 11 10 9 9 8 8 7 6 5 4 3 2 2 1 -0 -1 -1
15 17 18 19 18 19 15 15 19 21 20 19 18 17 16 16 16 17 17 18 18 18 18 17 17 17 16 15 15 15 14 13 12 11 9 9 9 9 8 6 5 4 3 2 2 1 0 -1 -1
16 17 18 18 18 18 15 16 20 21 19 17 16 16 16 16 16 16 17 17 17 17 17 17 17 17 17 16 16 15 15 13 13 12 10 9 9 9 8 6 5 4 3 2 2 1 0 -1 -1
16 16 16 17 17 16 17 17 19 20 20 19 19 17 16 16 15 15 15 16 16 16 16 16 16 16 16 16 15 15 14 14 14 12 10 9 9 8 7 6 5 4 3 2 1 1 0 -1 -1
14 15 15 16 16 17 18 17 19 21 22 21 19 17 16 15 15 14 14 15 15 15 16 16 16 15 15 15 14 14 14 13 13 12 11 10 9 7 6 5 4 3 2 2 1 0 -0 -1 -1
14 14 15 16 16 16 17 18 19 20 20 19 17 16 15 14 14 13 14 14 14 15 15 15 15 15 14 14 14 14 14 13 12 12 11 10 8 7 6 5 4 3 2 1 0 -0 -0 -1 -2
15 16 16 16 17 16 16 18 20 19 18 16 16 15 14 13 13 13 13 13 14 14 14 14 14 14 14 14 13 13 13 12 12 12 11 10 8 7 5 4 3 2 1 0 -0 -1 -1 -2 -2
Wind_Speed
3 2 2 3 4 5 4 1 1 4 4 4 4 4 4 4 3 1 5 12 15 19 18 18 16 14 13 11 10 10 9 9 10 10 11 12 12 13 14 15 15 16 17 18 18 19 20 20 21
2 2 3 3 5 6 3 1 4 4 4 6 5 5 5 5 1 4 9 13 18 18 17 18 17 15 14 12 11 10 10 9 10 10 10 11 11 12 13 13 14 15 16 16 17 18 18 19 19
1 2 3 4 7 6 4 1 2 4 6 7 7 5 5 3 5 7 11 18 18 18 17 17 18 16 14 13 11 10 10 9 9 9 9 10 10 11 11 12 12 13 14 15 15 16 17 18 18
2 2 3 6 8 5 4 1 4 7 7 7 6 5 4 2 4 7 15 20 18 18 17 18 18 17 15 13 12 11 10 10 9 9 8 9 9 9 10 10 11 12 12 13 14 15 16 17 17
2 3 6 9 9 5 3 2 6 9 7 9 8 6 5 6 5 11 17 20 18 18 17 17 19 17 15 14 13 11 10 10 9 8 8 8 8 8 8 9 9 10 11 12 12 13 14 15 16
1 4 8 10 11 7 5 6 7 9 8 7 8 7 4 7 11 14 18 18 18 18 17 15 19 17 16 15 14 12 11 10 10 9 8 7 7 7 7 8 8 8 9 10 11 12 13 14 15
3 5 11 13 13 13 6 7 7 9 11 10 7 6 5 9 12 15 18 18 17 18 17 15 18 18 17 16 15 13 12 11 10 9 8 7 7 6 6 6 7 7 7 8 9 10 11 12 13
1 5 12 13 14 16 4 7 5 8 8 5 7 8 4 9 15 16 17 16 16 17 17 17 17 17 17 17 16 15 14 12 11 10 9 8 7 6 5 5 5 5 6 6 7 8 9 9 11
2 7 12 13 12 11 4 7 5 4 6 6 7 5 3 13 18 17 16 16 17 17 18 18 18 17 16 15 16 16 15 14 13 12 10 8 6 6 5 5 4 4 4 5 6 6 7 6 7
4 8 12 7 7 7 4 7 6 6 10 9 10 10 7 16 20 21 22 23 23 22 21 19 19 18 17 15 14 14 14 14 13 11 11 8 7 6 5 5 4 4 3 3 4 4 4 5 6
5 8 7 6 6 5 6 7 6 9 14 15 14 16 17 18 21 22 24 24 24 22 21 20 21 20 19 16 14 13 12 12 13 13 12 9 8 7 6 5 5 4 3 1 0 2 3 5 6
6 8 6 5 4 5 7 6 8 14 16 7 10 11 19 22 24 25 25 24 22 22 23 21 22 20 20 18 16 15 13 13 12 13 14 11 9 8 7 6 6 5 4 2 2 2 3 4 5
7 6 5 6 7 8 9 13 11 18 18 12 7 12 19 22 24 24 23 22 22 23 23 23 23 22 21 19 16 16 15 15 15 14 15 14 11 9 9 8 7 6 5 4 3 3 3 4 5
3 5 7 7 8 6 9 12 9 18 13 15 16 17 19 22 24 23 23 23 24 24 24 23 23 24 22 19 17 16 16 15 15 15 16 16 13 11 10 9 8 8 7 5 5 4 4 5 6
3 7 10 8 6 4 6 13 13 16 9 14 18 19 20 22 22 25 25 25 25 24 24 24 23 25 24 22 20 17 16 16 16 16 17 18 16 13 12 10 9 9 8 7 6 6 5 6 7
4 6 6 4 6 4 5 16 13 9 12 17 18 19 20 21 23 24 24 23 23 22 23 24 20 23 24 22 20 18 17 17 17 16 17 19 19 16 14 11 10 10 9 8 7 6 6 6 6
5 6 10 8 6 5 8 20 23 12 13 19 20 19 20 20 22 23 24 23 23 23 23 23 24 24 23 23 20 19 18 18 17 17 17 19 20 19 16 13 12 12 10 9 8 7 6 7 7
8 11 14 13 5 7 14 24 29 22 18 23 23 21 20 21 22 21 22 22 21 21 22 23 23 23 22 19 17 15 16 17 18 18 19 20 20 21 18 14 14 13 11 9 9 9 8 7 7
11 13 18 18 9 7 18 26 30 27 20 22 22 21 21 21 19 16 18 20 20 21 22 23 23 23 20 17 17 16 16 15 15 18 21 22 21 22 20 16 15 15 12 11 11 9 10 8 7
9 13 17 14 2 6 17 27 27 20 15 15 16 17 17 17 16 15 15 17 21 22 23 23 24 24 24 19 17 15 15 14 16 17 20 23 24 23 21 20 15 16 12 13 13 12 9 8 7
10 11 13 13 12 7 11 14 10 7 7 9 9 10 11 12 13 13 15 17 19 22 24 22 24 24 24 22 15 13 13 11 14 16 16 22 25 25 24 23 20 17 15 13 14 14 13 10 9
10 5 8 9 9 7 6 9 13 9 10 9 10 7 6 5 7 9 11 15 18 20 19 21 22 23 23 22 20 22 19 19 19 16 16 19 25 26 26 24 23 19 16 15 14 14 13 12 10
5 2 4 6 7 8 4 6 11 8 10 15 14 13 10 7 5 5 9 12 15 16 17 18 20 22 22 24 24 23 23 20 16 16 18 19 20 25 26 26 23 20 17 17 16 15 15 13 12
2 3 3 2 3 4 2 4 8 5 9 13 14 14 13 11 8 6 5 8 10 13 15 17 19 21 22 24 25 26 27 24 21 20 18 17 16 17 24 25 23 21 18 18 17 16 17 15 14
3 5 5 4 3 3 1 5 10 9 8 10 12 13 13 12 11 10 8 6 8 11 14 16 19 21 22 24 25 26 27 25 25 23 21 19 16 17 21 22 21 20 20 19 18 17 17 17 16
2 4 4 5 6 7 3 7 9 10 9 7 6 8 11 14 14 13 11 8 7 8 11 15 18 20 20 22 24 24 24 20 19 23 20 19 17 18 19 22 22 22 22 20 18 16 16 15 16
3 3 2 5 6 7 6 7 12 7 2 3 8 11 15 16 16 15 13 10 8 7 8 12 15 17 18 20 21 21 22 22 21 20 20 19 18 16 20 21 22 22 21 21 19 16 17 16 16
2 2 3 4 5 7 7 7 7 10 11 13 14 15 17 17 16 15 13 11 9 8 6 7 11 13 15 16 17 16 19 21 21 19 21 21 20 19 19 21 22 22 21 21 19 17 17 17 16
5 4 6 5 5 6 9 8 7 12 14 13 14 16 16 16 15 13 12 12 10 9 7 6 7 10 11 13 15 17 18 18 19 20 21 21 20 20 21 21 21 22 22 21 20 19 18 18 17
5 6 7 6 8 8 10 12 9 12 9 10 15 16 15 13 12 12 12 12 11 11 9 7 7 8 9 10 13 15 16 17 18 20 20 20 20 20 20 20 21 21 21 21 21 20 19 18 18
Wind_Direction
160 195 227 226 219 235 265 291 218 174 176 151 156 189 213 224 257 358 127 156 152 156 159 160 157 153 147 140 131 120 110 100 91 84 78 72 66 62 59 56 54 51 49 47 45 43 42 42 41
175 218 216 226 239 243 251 207 217 198 145 148 174 200 220 228 146 125 153 162 159 158 161 160 157 156 152 146 139 130 119 109 99 91 84 77 70 65 61 58 55 52 50 47 44 42 40 40 39
192 251 225 220 240 261 288 228 211 144 156 177 187 215 240 216 171 171 164 162 163 162 163 158 160 160 157 152 146 138 128 118 108 99 91 84 75 69 65 59 56 52 50 46 44 41 38 37 36
234 205 222 239 246 263 289 281 173 168 180 206 206 210 217 198 168 165 157 163 167 165 165 163 164 164 161 158 153 146 138 128 119 109 100 92 83 74 69 63 58 53 49 46 43 41 37 34 33
250 240 235 244 256 263 249 225 189 201 195 197 207 229 212 164 155 156 163 168 171 168 168 168 169 169 167 164 160 155 147 139 130 121 111 101 92 82 75 69 62 55 50 45 42 40 36 32 31
229 256 254 260 268 270 243 203 194 220 213 191 208 234 211 149 164 165 167 172 174 171 172 172 173 174 173 171 168 164 158 150 142 133 123 113 103 93 82 76 68 59 51 46 42 40 35 30 28
280 273 269 275 279 278 261 182 208 222 216 205 203 222 180 175 171 167 170 175 178 178 179 179 180 179 179 178 175 172 167 160 153 144 134 124 113 103 90 81 75 64 53 47 42 39 35 28 26
307 272 269 271 278 283 250 181 228 226 225 188 199 228 213 171 164 167 172 179 184 186 188 186 185 182 182 182 181 178 174 170 163 154 145 135 125 117 107 99 85 73 57 49 43 38 33 27 24
233 262 269 274 276 284 193 203 211 224 221 203 217 236 75 143 156 166 175 185 191 195 195 192 189 185 184 184 182 183 181 178 171 165 158 155 157 150 142 110 100 88 66 51 42 35 26 18 19
221 263 273 278 268 276 228 229 219 211 224 224 221 210 155 158 168 178 186 191 195 197 196 195 195 190 188 185 185 187 184 180 184 179 174 177 175 169 158 134 124 110 89 67 41 27 11 357 359
230 260 272 251 251 261 252 236 223 227 239 233 226 205 178 178 185 192 197 199 199 197 196 198 198 195 193 190 190 188 187 186 190 192 188 185 182 177 182 180 172 170 174 189 348 315 352 353 355
242 252 256 258 234 240 247 244 232 231 247 261 237 200 178 187 194 200 203 203 201 200 200 199 199 199 199 197 196 196 194 193 194 195 194 191 191 194 193 198 195 199 203 217 252 297 323 329 332
242 260 248 249 245 249 255 249 258 253 250 242 219 189 191 197 203 207 208 206 203 204 202 202 200 201 201 202 202 202 202 200 198 195 197 198 197 198 197 200 201 206 210 219 239 265 290 301 308
269 265 263 258 246 244 255 263 253 263 251 231 221 213 208 208 208 208 209 209 207 207 205 202 202 203 202 203 204 205 205 203 202 200 200 201 203 201 200 203 205 209 213 221 236 255 274 284 288
266 280 272 239 232 244 264 265 238 251 232 229 226 225 220 219 214 213 210 210 208 207 205 203 203 204 204 207 208 208 207 204 204 204 203 202 205 204 203 206 207 209 210 218 230 241 256 269 274
250 263 274 210 205 211 245 273 270 255 230 242 239 232 225 223 220 219 215 213 211 208 206 204 201 205 206 208 209 210 209 207 208 206 205 205 206 205 206 209 210 207 208 216 225 235 246 254 264
238 275 291 294 209 216 237 276 284 273 243 254 253 243 233 229 224 221 217 214 211 208 205 204 203 205 206 208 209 212 212 211 211 208 207 207 207 206 208 212 211 206 209 214 220 229 238 250 258
292 295 292 294 273 236 260 275 283 281 256 258 260 255 243 236 231 222 215 213 210 208 206 205 204 207 206 207 211 213 216 216 215 213 212 208 207 207 209 213 212 207 210 213 216 224 229 243 256
284 281 286 292 299 265 275 282 286 290 280 265 261 258 252 245 241 225 213 209 208 207 206 206 205 205 204 204 207 210 214 215 216 217 215 211 209 207 209 212 211 209 213 215 217 222 230 234 239
259 277 288 298 298 270 293 290 289 292 286 277 273 268 261 255 244 225 213 207 207 207 207 207 207 205 204 206 207 211 216 220 219 218 218 215 212 209 209 212 211 210 214 216 216 217 225 230 224
264 268 290 302 312 269 306 298 296 321 316 302 289 279 274 262 251 232 217 214 210 210 209 208 207 207 206 205 206 208 215 222 218 218 218 216 214 212 211 212 213 211 212 214 213 212 218 225 222
283 289 277 290 306 307 338 306 305 334 343 15 17 8 338 297 264 247 227 219 216 216 213 213 211 210 208 205 208 207 210 217 220 219 219 217 215 214 213 212 212 213 212 215 213 212 216 222 229
282 344 279 284 287 290 271 269 293 326 3 9 13 19 17 5 327 273 242 231 225 219 215 214 215 214 211 209 211 214 222 227 228 223 222 220 215 215 213 213 212 213 213 214 213 211 213 216 224
260 264 238 223 248 265 255 263 293 339 353 345 353 6 11 7 357 330 279 245 232 221 215 214 215 217 213 212 214 218 223 226 226 224 222 219 217 215 214 212 212 212 212 212 212 212 214 217 221
237 290 293 278 265 277 128 258 263 292 322 318 324 342 356 0 358 347 328 282 245 225 217 215 216 219 215 215 217 221 225 227 228 228 224 221 219 216 213 209 211 211 212 211 210 212 215 217 221
243 270 300 304 297 302 260 253 269 298 306 305 318 342 356 2 356 345 334 312 278 245 226 220 220 222 218 218 221 224 226 228 232 230 227 225 224 222 215 210 211 210 209 208 208 211 214 217 221
230 223 309 280 278 276 264 269 289 280 259 340 359 2 359 353 347 341 336 328 309 280 245 230 228 228 224 223 224 226 227 228 231 233 231 231 229 225 218 213 212 211 209 207 206 211 213 214 219
286 209 200 246 280 282 271 263 260 285 310 335 346 351 349 347 343 341 340 337 328 313 289 254 241 238 234 228 227 230 230 231 233 233 232 230 229 225 221 216 213 211 209 207 207 211 213 214 218
181 195 223 246 259 276 287 270 254 277 307 326 334 341 343 341 340 341 342 342 338 333 319 290 263 251 244 236 233 233 234 233 233 233 234 233 230 226 222 218 215 212 209 206 207 210 210 214 219
235 235 217 248 263 248 277 280 271 280 305 323 327 333 337 342 344 345 346 346 348 344 336 317 291 269 257 248 242 240 239 237 235 236 235 233 231 227 224 220 218 215 210 207 207 210 211 213 218
Height
1562 1563 1565 1566 1566 1564 1564 1564 1566 1570 1572 1575 1576 1577 1576 1575 1575 1579 1578 1577 1578 1581 1585 1587 1588 1590 1591 1591 1592 1592 1592 1591 1591 1590 1589 1588 1587 1586 1585 1583 1582 1580 1579 1577 1575 1573 1571 1569 1566
1563 1564 1566 1566 1563 1566 1564 1562 1566 1568 1572 1575 1577 1577 1576 1575 1575 1574 1573 1574 1577 1580 1583 1586 1587 1588 1589 1590 1591 1591 1591 1590 1590 1589 1588 1587 1586 1585 1584 1583 1582 1580 1578 1577 1575 1573 1571 1569 1566
1564 1564 1567 1563 1562 1564 1563 1562 1565 1571 1574 1575 1576 1576 1575 1573 1572 1571 1572 1573 1576 1579 1582 1584 1585 1587 1588 1589 1590 1590 1590 1590 1589 1589 1588 1587 1586 1585 1584 1583 1581 1580 1578 1576 1574 1573 1571 1569 1566
1565 1566 1566 1562 1562 1561 1561 1563 1567 1571 1574 1574 1574 1573 1572 1569 1569 1569 1569 1571 1574 1577 1580 1582 1584 1586 1587 1588 1589 1589 1589 1589 1589 1588 1587 1586 1585 1584 1583 1582 1581 1579 1578 1576 1574 1572 1570 1568 1566
1565 1565 1562 1562 1561 1560 1563 1566 1568 1568 1569 1570 1572 1569 1568 1566 1566 1566 1568 1570 1573 1576 1579 1581 1582 1584 1585 1586 1587 1588 1588 1588 1587 1587 1586 1585 1584 1583 1582 1581 1580 1578 1577 1576 1574 1572 1570 1568 1566
1567 1563 1562 1562 1558 1558 1562 1565 1567 1566 1566 1568 1569 1567 1565 1563 1563 1564 1566 1568 1571 1574 1576 1579 1580 1582 1584 1585 1586 1586 1586 1586 1586 1586 1585 1584 1583 1582 1581 1580 1579 1578 1576 1574 1573 1571 1569 1567 1565
1566 1562 1561 1560 1558 1556 1558 1563 1564 1562 1562 1564 1565 1564 1562 1559 1560 1562 1564 1567 1569 1572 1574 1576 1579 1580 1581 1583 1583 1584 1585 1585 1584 1584 1583 1583 1582 1581 1580 1579 1578 1576 1575 1573 1572 1570 1568 1567 1565
1565 1563 1560 1558 1557 1554 1557 1561 1560 1561 1560 1561 1561 1560 1558 1556 1557 1559 1562 1564 1566 1568 1571 1573 1576 1578 1579 1580 1581 1582 1582 1582 1582 1582 1582 1581 1580 1579 1578 1577 1576 1575 1574 1572 1570 1569 1567 1565 1563
1564 1564 1560 1556 1556 1553 1557 1559 1559 1558 1558 1557 1555 1555 1553 1553 1554 1556 1558 1560 1562 1564 1566 1569 1572 1574 1576 1577 1578 1579 1579 1580 1580 1579 1579 1579 1578 1577 1577 1575 1574 1573 1572 1570 1569 1567 1566 1564 1562
1563 1560 1555 1555 1555 1554 1556 1556 1556 1556 1554 1552 1551 1549 1549 1550 1551 1552 1553 1554 1556 1558 1561 1564 1567 1569 1572 1573 1575 1576 1576 1576 1577 1577 1576 1576 1576 1575 1574 1573 1572 1571 1570 1568 1567 1566 1564 1562 1561
1560 1556 1554 1556 1556 1555 1554 1554 1553 1551 1546 1544 1544 1544 1543 1545 1546 1548 1549 1550 1552 1554 1556 1559 1561 1564 1567 1568 1570 1571 1572 1573 1573 1573 1573 1573 1573 1572 1571 1570 1570 1569 1567 1566 1565 1564 1562 1561 1559
1558 1555 1555 1554 1554 1554 1552 1550 1548 1545 1539 1539 1540 1540 1538 1540 1540 1542 1543 1546 1548 1549 1551 1554 1556 1559 1561 1563 1565 1566 1567 1568 1569 1569 1570 1570 1569 1569 1568 1567 1567 1566 1565 1563 1562 1561 1560 1558 1556
1556 1554 1554 1553 1552 1552 1550 1547 1544 1536 1534 1535 1534 1534 1533 1534 1535 1537 1540 1542 1543 1544 1546 1548 1550 1553 1555 1558 1559 1561 1562 1564 1564 1565 1565 1565 1565 1565 1565 1564 1563 1562 1561 1560 1559 1558 1556 1555 1553
1555 1554 1552 1550 1550 1549 1547 1542 1541 1527 1529 1529 1528 1527 1528 1528 1530 1531 1533 1534 1535 1537 1540 1542 1544 1547 1549 1551 1554 1556 1557 1558 1559 1560 1560 1561 1561 1561 1560 1560 1559 1558 1558 1557 1555 1554 1553 1551 1549
1555 1552 1546 1546 1547 1546 1546 1535 1529 1522 1523 1523 1521 1521 1520 1521 1522 1523 1525 1527 1529 1532 1534 1536 1538 1541 1543 1545 1548 1550 1551 1553 1553 1554 1555 1555 1556 1556 1556 1555 1555 1554 1553 1552 1551 1550 1548 1547 1545
1552 1548 1541 1539 1543 1544 1545 1525 1517 1519 1518 1516 1515 1514 1513 1512 1513 1515 1517 1520 1523 1525 1527 1530 1532 1534 1536 1539 1542 1543 1545 1546 1547 1548 1549 1549 1550 1550 1550 1550 1549 1549 1548 1547 1546 1545 1543 1542 1540
1545 1541 1538 1535 1540 1541 1539 1521 1510 1514 1513 1510 1508 1507 1506 1505 1505 1507 1509 1512 1515 1518 1520 1523 1525 1528 1530 1533 1535 1537 1538 1539 1540 1541 1542 1543 1543 1544 1544 1544 1544 1543 1542 1542 1541 1540 1538 1536 1535
1542 1540 1537 1534 1533 1538 1532 1517 1503 1504 1505 1501 1499 1498 1498 1497 1497 1500 1502 1505 1508 1510 1513 1516 1518 1521 1524 1526 1527 1529 1530 1531 1532 1532 1534 1535 1536 1537 1537 1537 1537 1537 1536 1535 1535 1534 1532 1531 1529
1544 1543 1538 1531 1530 1535 1524 1510 1495 1492 1494 1491 1489 1489 1489 1489 1492 1494 1495 1498 1500 1502 1505 1507 1510 1513 1515 1516 1517 1518 1519 1522 1523 1524 1526 1527 1528 1529 1530 1530 1530 1529 1529 1529 1528 1527 1526 1524 1523
1545 1542 1534 1527 1532 1533 1520 1506 1490 1486 1485 1484 1483 1482 1482 1483 1485 1487 1488 1490 1492 1495 1497 1500 1502 1505 1506 1507 1509 1511 1513 1514 1515 1516 1517 1518 1519 1520 1521 1522 1522 1522 1522 1521 1521 1520 1520 1518 1517
1541 1539 1532 1532 1529 1527 1526 1499 1482 1480 1484 1482 1480 1478 1477 1478 1479 1481 1481 1483 1485 1487 1490 1492 1495 1497 1499 1501 1503 1503 1504 1504 1505 1505 1506 1508 1510 1511 1512 1513 1513 1513 1513 1513 1513 1513 1512 1512 1510
1536 1535 1537 1537 1534 1524 1529 1517 1486 1480 1479 1477 1477 1476 1476 1475 1476 1477 1477 1478 1479 1482 1484 1486 1488 1490 1492 1493 1493 1493 1493 1492 1493 1496 1497 1498 1499 1501 1502 1503 1504 1504 1504 1504 1504 1504 1504 1504 1503
1536 1539 1538 1537 1534 1531 1525 1525 1494 1481 1478 1476 1477 1477 1477 1475 1475 1475 1475 1475 1476 1477 1478 1480 1481 1482 1483 1484 1484 1484 1484 1485 1487 1487 1486 1487 1488 1489 1490 1492 1493 1493 1494 1494 1495 1495 1495 1495 1495
1540 1538 1537 1537 1532 1528 1522 1522 1499 1479 1482 1481 1478 1479 1478 1476 1475 1474 1473 1473 1472 1472 1472 1473 1473 1474 1475 1475 1475 1475 1475 1476 1477 1476 1475 1476 1476 1476 1478 1480 1481 1482 1483 1484 1485 1486 1486 1486 1486
1539 1534 1527 1523 1522 1517 1526 1524 1501 1481 1484 1485 1483 1481 1478 1476 1475 1473 1472 1470 1469 1468 1467 1467 1466 1466 1467 1466 1466 1466 1466 1467 1466 1466 1465 1465 1464 1464 1465 1467 1469 1470 1472 1474 1476 1476 1476 1477 1477
1537 1535 1533 1533 1525 1517 1522 1518 1489 1481 1484 1484 1483 1482 1479 1477 1474 1472 1469 1467 1465 1463 1462 1460 1460 1459 1459 1458 1458 1457 1457 1457 1456 1456 1455 1454 1452 1453 1454 1456 1457 1459 1461 1463 1465 1465 1466 1467 1467
1536 1535 1536 1533 1529 1532 1515 1507 1491 1478 1480 1480 1480 1480 1478 1476 1473 1470 1466 1463 1461 1459 1457 1455 1454 1453 1452 1451 1450 1449 1449 1448 1447 1446 1445 1444 1443 1442 1443 1444 1445 1447 1450 1452 1453 1454 1456 1457 1458
1538 1535 1537 1534 1530 1524 1511 1506 1492 1477 1474 1476 1477 1478 1477 1475 1471 1468 1464 1460 1457 1455 1453 1451 1449 1448 1446 1445 1444 1442 1441 1440 1438 1437 1435 1433 1432 1432 1431 1432 1433 1435 1437 1440 1441 1443 1445 1447 1448
1538 1538 1534 1529 1527 1523 1513 1500 1482 1478 1476 1478 1479 1478 1476 1474 1470 1466 1462 1459 1456 1453 1450 1448 1446 1444 1442 1440 1438 1436 1434 1432 1429 1427 1425 1424 1423 1421 1420 1421 1422 1423 1425 1427 1430 1432 1434 1436 1438
1531 1528 1528 1528 1519 1520 1512 1495 1476 1477 1479 1480 1479 1478 1475 1472 1469 1465 1462 1459 1455 1452 1449 1446 1443 1440 1437 1435 1432 1429 1427 1424 1421 1418 1416 1414 1412 1411 1410 1410 1410 1412 1414 1416 1418 1421 1424 1426 1428